Middletown, OH

10:49 AM EST on December 07, 2016 (GMT -0500)
Hook Field Municipal

Weather History for KMWO - April, 2013

Change the Weather History Date:

Thursday, April 18, 2013

  Actual Average (KDAY) Record (KDAY)
Temperature  
Mean Temperature 73 °F 53 °F  
Max Temperature 81 °F 63 °F 88 °F (1896)
Min Temperature 65 °F 42 °F 25 °F (1983)
Degree Days  
Heating Degree Days 0 13  
Month to date heating degree days 283  
Since 1 July heating degree days 5322  
Cooling Degree Days 8 0  
Month to date cooling degree days 0  
Year to date cooling degree days 0  
Growing Degree Days 23 (Base 50)    
Moisture  
Dew Point 62 °F    
Average Humidity 69    
Maximum Humidity 89    
Minimum Humidity 44    
Precipitation  
Precipitation 0.00 in 0.15 in 1.11 in (1992)
Month to date precipitation 2.39  
Year to date precipitation 10.68  
Snow  
Snow 0.00 in 0.10 in 2.20 in (1953)
Month to date snowfall 0.6  
Since 1 July snowfall 23.3  
Snow Depth -    
Sea Level Pressure  
Sea Level Pressure 29.83 in    
Wind  
Wind Speed 12 mph (SSW)    
Max Wind Speed 29 mph    
Max Gust Speed 43 mph    
Visibility 10 miles    
Events      
T = Trace of Precipitation, MM = Missing Value Source: NWS Daily Summary

Daily Weather History Graph

Daily Weather History Graph

Search for Another Location

Airport or City:

Trip Planner

Search our weather history database for the weather conditions in past years. The results will help you decide how hot, cold, wet, or windy it might be!

Date:

Astronomy

Apr. 18, 2013 Rise Set
Actual Time 6:55 AM EDT 8:18 PM EDT
Civil Twilight 6:27 AM EDT 8:46 PM EDT
Nautical Twilight 5:53 AM EDT 9:20 PM EDT
Astronomical Twilight 5:18 AM EDT 9:56 PM EDT
Moon 1:06 PM EDT (4/18) 2:32 AM EDT (4/18)
Length of Visible Light 14h 19m
Length of Day
13h 23m
First Quarter, 51% of the Moon is Illuminated
Apr 18
First Quarter
Apr 25
Full
May 2
Last Quarter
May 9
New
May 18
First Quarter

Hourly Weather History & Observations

Time (EDT) Temp. Heat Index Dew Point Humidity Pressure Visibility Wind Dir Wind Speed Gust Speed Precip Events Conditions
12:15 AM 67.6 °F - 62.1 °F 82% 29.99 in 10.0 mi SSE 3.5 mph - N/A   Overcast
12:35 AM 67.6 °F - 62.1 °F 82% 29.98 in 10.0 mi SSE 6.9 mph - N/A   Mostly Cloudy
12:55 AM 67.6 °F - 62.6 °F 84% 29.98 in 10.0 mi South 8.1 mph - N/A   Scattered Clouds
1:15 AM 67.6 °F - 62.6 °F 84% 29.96 in 10.0 mi SSE 5.8 mph - N/A   Clear
1:35 AM 67.6 °F - 63.1 °F 85% 29.95 in 10.0 mi SSE 4.6 mph - N/A   Clear
1:55 AM 67.6 °F - 63.3 °F 86% 29.95 in 10.0 mi South 6.9 mph - N/A   Clear
2:15 AM 67.6 °F - 62.8 °F 84% 29.94 in 10.0 mi South 8.1 mph - N/A   Clear
2:35 AM 67.6 °F - 63.5 °F 87% 29.92 in 10.0 mi South 8.1 mph - N/A   Clear
2:55 AM 67.6 °F - 63.5 °F 87% 29.92 in 10.0 mi South 6.9 mph - N/A   Clear
3:15 AM 65.3 °F - 61.7 °F 88% 29.91 in 10.0 mi South 3.5 mph - N/A   Clear
3:35 AM 65.3 °F - 61.7 °F 88% 29.90 in 10.0 mi South 5.8 mph - N/A   Clear
3:55 AM 65.3 °F - 61.7 °F 88% 29.89 in - South 3.5 mph - N/A   Unknown
4:15 AM 65.3 °F - 61.7 °F 88% 29.89 in 10.0 mi South 6.9 mph - N/A   Clear
4:35 AM 65.3 °F - 61.7 °F 88% 29.89 in 10.0 mi South 6.9 mph - N/A   Clear
4:55 AM 65.3 °F - 61.7 °F 88% 29.88 in 10.0 mi South 4.6 mph - N/A   Clear
5:15 AM 65.3 °F - 61.7 °F 88% 29.89 in 10.0 mi South 6.9 mph - N/A   Clear
5:35 AM 65.3 °F - 61.7 °F 88% 29.88 in 10.0 mi South 8.1 mph - N/A   Clear
5:55 AM 67.6 °F - 63.7 °F 87% 29.88 in 10.0 mi SSW 11.5 mph - N/A   Clear
6:15 AM 67.6 °F - 63.7 °F 87% 29.88 in 10.0 mi SSW 12.7 mph 19.6 mph N/A   Clear
6:35 AM 67.6 °F - 63.5 °F 87% 29.88 in 10.0 mi SSW 10.4 mph - N/A   Clear
6:55 AM 67.3 °F - 63.7 °F 88% 29.88 in 10.0 mi SSW 9.2 mph - N/A   Clear
7:15 AM 65.7 °F - 62.2 °F 89% 29.89 in 10.0 mi SSW 8.1 mph - N/A   Clear
7:35 AM 67.5 °F - 64.2 °F 89% 29.89 in 10.0 mi South 9.2 mph - N/A   Clear
7:55 AM 67.6 °F - 63.5 °F 87% 29.90 in 10.0 mi SSW 12.7 mph - N/A   Clear
8:15 AM 67.6 °F - 63.5 °F 87% 29.90 in 10.0 mi South 11.5 mph 16.1 mph N/A   Clear
8:35 AM 67.6 °F - 62.6 °F 84% 29.90 in 10.0 mi South 10.4 mph - N/A   Clear
8:55 AM 67.6 °F - 61.9 °F 82% 29.90 in 10.0 mi SSW 17.3 mph 27.6 mph N/A   Clear
9:15 AM 69.4 °F - 63.1 °F 80% 29.89 in 10.0 mi SSW 19.6 mph 25.3 mph N/A   Clear
9:35 AM 72.7 °F - 66.2 °F 80% 29.88 in 10.0 mi SSW 15.0 mph 25.3 mph N/A   Clear
9:55 AM 72.7 °F - 65.7 °F 79% 29.88 in 10.0 mi SSW 15.0 mph 25.3 mph N/A   Clear
10:15 AM 72.7 °F - 65.1 °F 77% 29.87 in 10.0 mi SSW 23.0 mph 28.8 mph N/A   Clear
10:35 AM 75.2 °F - 66.9 °F 75% 29.87 in 10.0 mi South 20.7 mph 29.9 mph N/A   Scattered Clouds
10:55 AM 75.2 °F - 65.7 °F 72% 29.86 in 10.0 mi SSW 26.5 mph 33.4 mph N/A   Scattered Clouds
11:15 AM 76.1 °F - 65.8 °F 70% 29.85 in 10.0 mi SSW 23.0 mph 35.7 mph N/A   Clear
11:35 AM 77.9 °F - 66.2 °F 67% 29.84 in 10.0 mi SSW 26.5 mph 36.8 mph N/A   Scattered Clouds
11:55 AM 77.9 °F - 66.0 °F 67% 29.83 in 10.0 mi South 26.5 mph 32.2 mph N/A   Scattered Clouds
12:15 PM 77.9 °F - 65.1 °F 65% 29.83 in 10.0 mi SSW 23.0 mph 33.4 mph N/A   Scattered Clouds
12:35 PM 77.9 °F - 64.4 °F 63% 29.83 in 10.0 mi SSW 28.8 mph 38.0 mph N/A   Scattered Clouds
12:55 PM 79.0 °F - 64.6 °F 61% 29.82 in 10.0 mi SSW 27.6 mph 34.5 mph N/A   Scattered Clouds
1:15 PM 78.8 °F - 64.0 °F 60% 29.82 in 10.0 mi SSW 21.9 mph 32.2 mph N/A   Scattered Clouds
1:35 PM 79.3 °F - 64.0 °F 59% 29.80 in 10.0 mi South 23.0 mph 29.9 mph N/A   Scattered Clouds
1:55 PM 80.1 °F 81.7 °F 64.2 °F 58% 29.80 in 10.0 mi SSW 25.3 mph 33.4 mph N/A   Clear
2:15 PM 80.2 °F 81.5 °F 62.8 °F 55% 29.79 in 10.0 mi SSW 26.5 mph 32.2 mph N/A   Clear
2:35 PM 81.0 °F 82.3 °F 63.5 °F 55% 29.78 in 10.0 mi SSW 23.0 mph 31.1 mph N/A   Clear
2:55 PM 80.2 °F 81.6 °F 63.3 °F 56% 29.78 in 10.0 mi South 21.9 mph 33.4 mph N/A   Scattered Clouds
3:15 PM 80.2 °F 81.4 °F 62.4 °F 54% 29.78 in 10.0 mi SSW 26.5 mph 35.7 mph N/A   Scattered Clouds
3:35 PM 80.2 °F 81.4 °F 62.1 °F 54% 29.77 in 10.0 mi SSW 21.9 mph 38.0 mph N/A   Scattered Clouds
3:55 PM 80.6 °F 81.7 °F 62.1 °F 53% 29.76 in 10.0 mi SSW 23.0 mph 35.7 mph N/A   Clear
4:35 PM 80.6 °F 81.4 °F 60.4 °F 50% 29.75 in 10.0 mi SSW 21.9 mph 31.1 mph N/A   Clear
4:55 PM 79.0 °F - 59.7 °F 52% 29.74 in 10.0 mi SSW 24.2 mph 42.6 mph N/A   Clear
5:15 PM 79.0 °F - 59.7 °F 52% 29.73 in 10.0 mi SSW 23.0 mph 29.9 mph N/A   Clear
5:35 PM 79.0 °F - 59.9 °F 52% 29.73 in 10.0 mi SSW 20.7 mph 32.2 mph N/A   Clear
5:55 PM 79.0 °F - 58.1 °F 49% 29.72 in 10.0 mi SSW 23.0 mph 34.5 mph N/A   Clear
6:15 PM 78.6 °F - 57.2 °F 48% 29.72 in 10.0 mi South 21.9 mph 34.5 mph N/A   Clear
6:35 PM 78.4 °F - 57.7 °F 49% 29.71 in 10.0 mi South 15.0 mph 27.6 mph N/A   Scattered Clouds
6:55 PM 77.9 °F - 55.4 °F 46% 29.70 in 10.0 mi South 17.3 mph 28.8 mph N/A   Scattered Clouds
7:15 PM 77.9 °F - 54.7 °F 45% 29.70 in 10.0 mi South 16.1 mph 29.9 mph N/A   Scattered Clouds
7:35 PM 77.9 °F - 54.5 °F 44% 29.70 in 10.0 mi South 13.8 mph 21.9 mph N/A   Scattered Clouds
7:55 PM 77.9 °F - 55.4 °F 46% 29.69 in 10.0 mi South 13.8 mph 18.4 mph N/A   Mostly Cloudy
8:15 PM 77.9 °F - 55.6 °F 46% 29.69 in 10.0 mi South 12.7 mph 21.9 mph N/A   Scattered Clouds
8:35 PM 77.9 °F - 55.4 °F 46% 29.69 in 10.0 mi South 15.0 mph 21.9 mph N/A   Scattered Clouds
8:55 PM 77.9 °F - 55.8 °F 46% 29.69 in 10.0 mi South 13.8 mph 21.9 mph N/A   Scattered Clouds
9:15 PM 77.9 °F - 55.8 °F 46% 29.69 in 10.0 mi SSW 16.1 mph 25.3 mph N/A   Mostly Cloudy
9:35 PM 77.9 °F - 55.6 °F 46% 29.68 in 10.0 mi South 19.6 mph 24.2 mph N/A   Overcast
11:35 PM 75.2 °F - 55.6 °F 50% 29.64 in 10.0 mi South 16.1 mph 20.7 mph N/A   Overcast
11:55 PM 75.2 °F - 55.9 °F 51% 29.62 in 10.0 mi South 15.0 mph 24.2 mph N/A   Mostly Cloudy